Location: Lake Almanor
(40.2485°N, 121.1442°W)
Time: 07:24:22
(UTC-08:00)

STARLINK-1128 - Pass Details

Date: 30 January 2020
Orbit: 525 x 527 km, 53.0° (Epoch: 18 February)

Event Time Altitude Azimuth Distance (km) Brightness Sun altitude
Rises 18:14:31 0° 313° (NW) 2,633 7.6 -10.6°
Reaches altitude 10° 18:16:52 10° 323° (NW) 1,741 6.5 -11.1°
Maximum altitude 18:20:30 35° 30° (NNE) 834 4.2 -11.7°
Enters shadow 18:22:50 19° 87° (E) 1,279 4.9 -12.2°
